Flag for U.S.A. Weather past 2 weeks in Augusta, Maine, U.S.A.

Now
80 °F

Sunny.


Feels Like: 80 °F
Forecast: 55 / 79 °F
Wind: 8 mph from Northwest

Location: Augusta State Airport

Current Time: Jul 25, 2014 at 5:28:19 PM

Latest Report: Jul 25, 2014 at 4:53 PM


Visibility: 9 mi

Pressure: 29.87 "Hg

Humidity: 41%

Dew point: 54 °F

Location of AugustaLocation

Historic Weather in Augusta — Graph

°F

Augusta temperature yesterday

Maximum temperature yesterday: 76 °F (at 2:53 PM)
Minimum temperature yesterday: 61 °F (at 10:53 PM)
Average temperature yesterday: 69 °F

Past Weeks' High & Low Weather Summary

 TemperatureHumidityPressure
High86 °F (Jul 23, 11:53 AM)100% (Jul 14, 4:53 AM)30.29 "Hg (Jul 14, 4:53 AM)
Low55 °F (Jul 11, 3:53 AM)37% (Jul 11, 2:53 PM)29.70 "Hg (Jul 23, 4:53 PM)
Average69 °F76%30.01 "Hg
* Reported Jul 10 3:53 PM — Jul 25 3:53 PM, Augusta, Weather by CustomWeather, © 2014

Note: Actual official high and low records may vary slightly from our data, if they occured in-between our weather recording intervals... More about our weather records

Advertising

Augusta weather history for previous 24 hours

 ConditionsComfort  
Time TempWeatherWind HumidityBarometerVisibility
3:53 PM
Jul 25
79 °FPassing clouds.8 mph41%29.88 "Hg10 mi
2:53 PM79 °FScattered clouds.12 mph42%29.88 "Hg10 mi
1:53 PM78 °FSunny.8 mph45%29.89 "Hg10 mi
12:53 PM77 °FSunny.8 mph44%29.91 "Hg10 mi
11:53 AM75 °FSunny.9 mph50%29.92 "Hg10 mi
10:53 AM72 °FSunny.7 mph57%29.93 "Hg10 mi
9:53 AM69 °FSunny.No wind63%29.93 "Hg10 mi
8:53 AM66 °FSunny.5 mph68%29.93 "Hg10 mi
7:53 AM63 °FSunny.5 mph70%29.93 "Hg10 mi
6:53 AM59 °FSunny.6 mph78%29.93 "Hg10 mi
5:53 AM57 °FClear.5 mph78%29.91 "Hg10 mi
4:53 AM56 °FClear.No wind81%29.90 "Hg10 mi
3:53 AM57 °FClear.6 mph78%29.91 "Hg10 mi
2:53 AM58 °FClear.3 mph75%29.90 "Hg10 mi
1:53 AM58 °FClear.6 mph72%29.90 "Hg10 mi
12:53 AM59 °FClear.7 mph69%29.90 "Hg10 mi
11:53 PM
Jul 24
61 °FClear.3 mph70%29.90 "Hg10 mi
10:53 PM61 °FClear.7 mph70%29.89 "Hg10 mi
9:53 PM63 °FClear.6 mph65%29.88 "Hg10 mi
8:53 PM66 °FSunny.8 mph61%29.86 "Hg10 mi
7:53 PM69 °FSunny.7 mph59%29.84 "Hg10 mi
6:53 PM73 °FScattered clouds.8 mph51%29.83 "Hg10 mi
5:53 PM76 °FScattered clouds.6 mph50%29.82 "Hg10 mi
Weather by CustomWeather, © 2014

See weather overviewHow to use our weather pages